Year,Month,Day,Hour,Minute,Value (Times are PST for temperature in C)
2008,04,12,00,00,7.60
2008,04,12,00,01,7.60
2008,04,12,00,02,7.60
2008,04,12,00,03,7.60
2008,04,12,00,04,7.60
2008,04,12,00,05,7.60
2008,04,12,00,06,7.60
2008,04,12,00,07,7.60
2008,04,12,00,08,7.60
2008,04,12,00,09,7.60
2008,04,12,00,10,7.60
2008,04,12,00,11,7.60
2008,04,12,00,12,7.60
2008,04,12,00,13,7.60
2008,04,12,00,14,7.60
2008,04,12,00,15,7.60
2008,04,12,00,16,7.50
2008,04,12,00,17,7.50
2008,04,12,00,18,7.50
2008,04,12,00,19,7.50
2008,04,12,00,20,7.50
2008,04,12,00,21,7.40
2008,04,12,00,22,7.50
2008,04,12,00,23,7.40
2008,04,12,00,24,7.40
2008,04,12,00,25,7.40
2008,04,12,00,26,7.40
2008,04,12,00,27,7.40
2008,04,12,00,28,7.40
2008,04,12,00,29,7.40
2008,04,12,00,30,7.40
2008,04,12,00,31,7.40
2008,04,12,00,32,7.30
2008,04,12,00,33,7.30
2008,04,12,00,35,7.30
2008,04,12,00,37,7.20
2008,04,12,00,38,7.20
2008,04,12,00,39,7.20
2008,04,12,00,40,7.20
2008,04,12,00,41,7.20
2008,04,12,00,42,7.20
2008,04,12,00,43,7.20
2008,04,12,00,44,7.20
2008,04,12,00,45,7.10
2008,04,12,00,46,7.10
2008,04,12,00,47,7.10
2008,04,12,00,48,7.10
2008,04,12,00,49,7.10
2008,04,12,00,50,7.10
2008,04,12,00,51,7.00
2008,04,12,00,52,7.00
2008,04,12,00,54,7.00
2008,04,12,00,55,6.90
2008,04,12,00,56,6.90
2008,04,12,00,57,6.90
2008,04,12,00,58,6.90
2008,04,12,00,59,6.90
2008,04,12,01,00,6.90
2008,04,12,01,01,6.90
2008,04,12,01,02,6.90
2008,04,12,01,04,6.80
2008,04,12,01,05,6.80
2008,04,12,01,07,6.80
2008,04,12,01,08,6.80
2008,04,12,01,09,6.80
2008,04,12,01,10,6.80
2008,04,12,01,11,6.80
2008,04,12,01,12,6.80
2008,04,12,01,13,6.70
2008,04,12,01,14,6.70
2008,04,12,01,17,6.70
2008,04,12,01,18,6.70
2008,04,12,01,19,6.70
2008,04,12,01,20,6.60
2008,04,12,01,21,6.60
2008,04,12,01,22,6.60
2008,04,12,01,23,6.60
2008,04,12,01,24,6.60
2008,04,12,01,25,6.60
2008,04,12,01,26,6.60
2008,04,12,01,27,6.50
2008,04,12,01,28,6.50
2008,04,12,01,29,6.50
2008,04,12,01,31,6.50
2008,04,12,01,33,6.40
2008,04,12,01,34,6.40
2008,04,12,01,35,6.40
2008,04,12,01,36,6.40
2008,04,12,01,37,6.40
2008,04,12,01,38,6.40
2008,04,12,01,39,6.40
2008,04,12,01,40,6.40
2008,04,12,01,41,6.30
2008,04,12,01,42,6.30
2008,04,12,01,43,6.30
2008,04,12,01,44,6.30
2008,04,12,01,45,6.30
2008,04,12,01,46,6.30
2008,04,12,01,47,6.30
2008,04,12,01,48,6.30
2008,04,12,01,49,6.30
2008,04,12,01,50,6.30
2008,04,12,01,51,6.20
2008,04,12,01,52,6.20
2008,04,12,01,53,6.20
2008,04,12,01,54,6.20
2008,04,12,01,55,6.20
2008,04,12,01,56,6.20
2008,04,12,01,57,6.20
2008,04,12,01,58,6.20
2008,04,12,01,59,6.20
2008,04,12,02,00,6.10
2008,04,12,02,01,6.10
2008,04,12,02,02,6.10
2008,04,12,02,03,6.10
2008,04,12,02,04,6.10
2008,04,12,02,05,6.10
2008,04,12,02,06,6.10
2008,04,12,02,07,6.10
2008,04,12,02,08,6.10
2008,04,12,02,09,6.10
2008,04,12,02,10,6.10
2008,04,12,02,11,6.10
2008,04,12,02,12,6.00
2008,04,12,02,13,6.00
2008,04,12,02,14,6.00
2008,04,12,02,15,6.00
2008,04,12,02,16,6.00
2008,04,12,02,17,5.90
2008,04,12,02,18,5.90
2008,04,12,02,19,5.90
2008,04,12,02,20,5.90
2008,04,12,02,21,5.90
2008,04,12,02,22,5.90
2008,04,12,02,23,5.90
2008,04,12,02,24,5.90
2008,04,12,02,25,5.90
2008,04,12,02,26,5.80
2008,04,12,02,27,5.80
2008,04,12,02,28,5.80
2008,04,12,02,29,5.80
2008,04,12,02,30,5.80
2008,04,12,02,31,5.80
2008,04,12,02,32,5.80
2008,04,12,02,33,5.70
2008,04,12,02,34,5.70
2008,04,12,02,35,5.70
2008,04,12,02,37,5.70
2008,04,12,02,38,5.70
2008,04,12,02,39,5.70
2008,04,12,02,40,5.70
2008,04,12,02,41,5.60
2008,04,12,02,42,5.60
2008,04,12,02,43,5.60
2008,04,12,02,44,5.60
2008,04,12,02,45,5.60
2008,04,12,02,46,5.60
2008,04,12,02,47,5.50
2008,04,12,02,48,5.50
2008,04,12,02,49,5.50
2008,04,12,02,50,5.40
2008,04,12,02,51,5.40
2008,04,12,02,52,5.40
2008,04,12,02,53,5.40
2008,04,12,02,54,5.40
2008,04,12,02,55,5.40
2008,04,12,02,56,5.30
2008,04,12,02,57,5.30
2008,04,12,02,58,5.30
2008,04,12,02,59,5.30
2008,04,12,03,00,5.30
2008,04,12,03,01,5.30
2008,04,12,03,02,5.30
2008,04,12,03,03,5.20
2008,04,12,03,04,5.20
2008,04,12,03,05,5.20
2008,04,12,03,06,5.20
2008,04,12,03,08,5.10
2008,04,12,03,09,5.10
2008,04,12,03,10,5.10
2008,04,12,03,11,5.10
2008,04,12,03,12,5.10
2008,04,12,03,13,5.10
2008,04,12,03,14,5.10
2008,04,12,03,15,5.10
2008,04,12,03,16,5.00
2008,04,12,03,17,5.00
2008,04,12,03,18,5.00
2008,04,12,03,19,4.90
2008,04,12,03,20,4.90
2008,04,12,03,21,4.90
2008,04,12,03,22,4.90
2008,04,12,03,23,4.90
2008,04,12,03,24,4.90
2008,04,12,03,25,4.80
2008,04,12,03,26,4.80
2008,04,12,03,27,4.80
2008,04,12,03,28,4.80
2008,04,12,03,29,4.80
2008,04,12,03,30,4.80
2008,04,12,03,31,4.80
2008,04,12,03,32,4.80
2008,04,12,03,33,4.80
2008,04,12,03,34,4.70
2008,04,12,03,35,4.70
2008,04,12,03,36,4.70
2008,04,12,03,37,4.70
2008,04,12,03,38,4.70
2008,04,12,03,39,4.70
2008,04,12,03,40,4.70
2008,04,12,03,41,4.70
2008,04,12,03,42,4.70
2008,04,12,03,43,4.60
2008,04,12,03,44,4.60
2008,04,12,03,45,4.60
2008,04,12,03,46,4.60
2008,04,12,03,47,4.60
2008,04,12,03,48,4.60
2008,04,12,03,49,4.60
2008,04,12,03,50,4.60
2008,04,12,03,51,4.60
2008,04,12,03,52,4.60
2008,04,12,03,53,4.50
2008,04,12,03,54,4.50
2008,04,12,03,55,4.50
2008,04,12,03,56,4.50
2008,04,12,03,57,4.40
2008,04,12,03,58,4.40
2008,04,12,03,59,4.40
2008,04,12,04,00,4.40
2008,04,12,04,01,4.40
2008,04,12,04,02,4.40
2008,04,12,04,03,4.40
2008,04,12,04,04,4.40
2008,04,12,04,05,4.40
2008,04,12,04,06,4.40
2008,04,12,04,07,4.40
2008,04,12,04,08,4.40
2008,04,12,04,09,4.40
2008,04,12,04,10,4.40
2008,04,12,04,11,4.40
2008,04,12,04,12,4.40
2008,04,12,04,13,4.40
2008,04,12,04,14,4.40
2008,04,12,04,15,4.40
2008,04,12,04,16,4.40
2008,04,12,04,17,4.40
2008,04,12,04,18,4.40
2008,04,12,04,19,4.40
2008,04,12,04,20,4.40
2008,04,12,04,21,4.40
2008,04,12,04,22,4.40
2008,04,12,04,23,4.40
2008,04,12,04,24,4.40
2008,04,12,04,25,4.40
2008,04,12,04,26,4.50
2008,04,12,04,27,4.50
2008,04,12,04,28,4.50
2008,04,12,04,29,4.50
2008,04,12,04,30,4.50
2008,04,12,04,31,4.50
2008,04,12,04,32,4.50
2008,04,12,04,33,4.50
2008,04,12,04,34,4.50
2008,04,12,04,35,4.50
2008,04,12,04,36,4.50
2008,04,12,04,37,4.50
2008,04,12,04,38,4.50
2008,04,12,04,39,4.50
2008,04,12,04,40,4.50
2008,04,12,04,41,4.40
2008,04,12,04,42,4.50
2008,04,12,04,43,4.40
2008,04,12,04,44,4.40
2008,04,12,04,45,4.40
2008,04,12,04,46,4.40
2008,04,12,04,47,4.40
2008,04,12,04,48,4.40
2008,04,12,04,49,4.40
2008,04,12,04,50,4.40
2008,04,12,04,51,4.40
2008,04,12,04,52,4.40
2008,04,12,04,53,4.40
2008,04,12,04,54,4.40
2008,04,12,04,55,4.40
2008,04,12,04,56,4.40
2008,04,12,04,57,4.40
2008,04,12,04,58,4.40
2008,04,12,04,59,4.40
2008,04,12,05,00,4.40
2008,04,12,05,01,4.40
2008,04,12,05,02,4.40
2008,04,12,05,03,4.40
2008,04,12,05,04,4.40
2008,04,12,05,05,4.40
2008,04,12,05,06,4.40
2008,04,12,05,07,4.40
2008,04,12,05,09,4.40
2008,04,12,05,10,4.40
2008,04,12,05,11,4.40
2008,04,12,05,12,4.40
2008,04,12,05,13,4.40
2008,04,12,05,14,4.40
2008,04,12,05,15,4.40
2008,04,12,05,16,4.40
2008,04,12,05,17,4.40
2008,04,12,05,18,4.40
2008,04,12,05,19,4.40
2008,04,12,05,20,4.40
2008,04,12,05,21,4.40
2008,04,12,05,22,4.40
2008,04,12,05,23,4.40
2008,04,12,05,24,4.40
2008,04,12,05,25,4.40
2008,04,12,05,26,4.40
2008,04,12,05,27,4.40
2008,04,12,05,28,4.40
2008,04,12,05,29,4.40
2008,04,12,05,30,4.40
2008,04,12,05,31,4.40
2008,04,12,05,32,4.40
2008,04,12,05,33,4.40
2008,04,12,05,34,4.40
2008,04,12,05,35,4.40
2008,04,12,05,36,4.40
2008,04,12,05,37,4.40
2008,04,12,05,38,4.40
2008,04,12,05,39,4.40
2008,04,12,05,40,4.40
2008,04,12,05,41,4.40
2008,04,12,05,42,4.40
2008,04,12,05,43,4.40
2008,04,12,05,44,4.40
2008,04,12,05,45,4.40
2008,04,12,05,46,4.40
2008,04,12,05,47,4.40
2008,04,12,05,48,4.40
2008,04,12,05,49,4.40
2008,04,12,05,50,4.40
2008,04,12,05,51,4.40
2008,04,12,05,52,4.40
2008,04,12,05,53,4.40
2008,04,12,05,54,4.40
2008,04,12,05,55,4.40
2008,04,12,05,56,4.40
2008,04,12,05,57,4.40
2008,04,12,05,58,4.40
2008,04,12,05,59,4.40
2008,04,12,06,00,4.40
2008,04,12,06,01,4.40
2008,04,12,06,02,4.40
2008,04,12,06,03,4.40
2008,04,12,06,04,4.30
2008,04,12,06,05,4.30
2008,04,12,06,06,4.30
2008,04,12,06,07,4.30
2008,04,12,06,08,4.30
2008,04,12,06,09,4.30
2008,04,12,06,10,4.30
2008,04,12,06,11,4.30
2008,04,12,06,12,4.30
2008,04,12,06,13,4.30
2008,04,12,06,14,4.30
2008,04,12,06,15,4.30
2008,04,12,06,16,4.30
2008,04,12,06,17,4.20
2008,04,12,06,18,4.20
2008,04,12,06,19,4.20
2008,04,12,06,20,4.20
2008,04,12,06,21,4.20
2008,04,12,06,22,4.20
2008,04,12,06,23,4.20
2008,04,12,06,24,4.20
2008,04,12,06,25,4.20
2008,04,12,06,26,4.20
2008,04,12,06,27,4.20
2008,04,12,06,28,4.20
2008,04,12,06,29,4.10
2008,04,12,06,30,4.10
2008,04,12,06,31,4.10
2008,04,12,06,32,4.10
2008,04,12,06,33,4.10
2008,04,12,06,34,4.10
2008,04,12,06,35,4.10
2008,04,12,06,36,4.10
2008,04,12,06,37,4.10
2008,04,12,06,38,4.10
2008,04,12,06,39,4.10
2008,04,12,06,40,4.00
2008,04,12,06,41,4.00
2008,04,12,06,42,4.00
2008,04,12,06,43,4.00
2008,04,12,06,44,4.00
2008,04,12,06,45,4.00
2008,04,12,06,46,4.00
2008,04,12,06,48,3.90
2008,04,12,06,49,3.90
2008,04,12,06,50,3.90
2008,04,12,06,51,3.90
2008,04,12,06,52,3.90
2008,04,12,06,53,3.90
2008,04,12,06,54,3.90
2008,04,12,06,55,3.90
2008,04,12,06,56,3.90
2008,04,12,06,57,3.90
2008,04,12,06,58,3.90
2008,04,12,06,59,3.80
2008,04,12,07,01,3.80
2008,04,12,07,02,3.80
2008,04,12,07,03,3.80
2008,04,12,07,04,3.80
2008,04,12,07,05,3.80
2008,04,12,07,06,3.80
2008,04,12,07,07,3.80
2008,04,12,07,08,3.80
2008,04,12,07,10,3.80
2008,04,12,07,11,3.70
2008,04,12,07,12,3.70
2008,04,12,07,13,3.70
2008,04,12,07,14,3.70
2008,04,12,07,15,3.70
2008,04,12,07,16,3.70
2008,04,12,07,17,3.70
2008,04,12,07,18,3.70
2008,04,12,07,19,3.70
2008,04,12,07,20,3.70
2008,04,12,07,21,3.70
2008,04,12,07,22,3.70
2008,04,12,07,23,3.70
2008,04,12,07,24,3.70
2008,04,12,07,25,3.70
2008,04,12,07,26,3.80
2008,04,12,07,27,3.80
2008,04,12,07,28,3.80
2008,04,12,07,29,3.80
2008,04,12,07,30,3.80
2008,04,12,07,31,3.80
2008,04,12,07,32,3.80
2008,04,12,07,33,3.80
2008,04,12,07,34,3.80
2008,04,12,07,35,3.80
2008,04,12,07,37,3.90
2008,04,12,07,38,3.90
2008,04,12,07,39,3.90
2008,04,12,07,40,3.90
2008,04,12,07,41,4.00
2008,04,12,07,42,4.00
2008,04,12,07,43,4.10
2008,04,12,07,44,4.10
2008,04,12,07,45,4.10
2008,04,12,07,46,4.10
2008,04,12,07,47,4.20
2008,04,12,07,48,4.20
2008,04,12,07,49,4.20
2008,04,12,07,50,4.30
2008,04,12,07,51,4.30
2008,04,12,07,52,4.30
2008,04,12,07,53,4.30
2008,04,12,07,54,4.30
2008,04,12,07,55,4.30
2008,04,12,07,56,4.40
2008,04,12,07,57,4.40
2008,04,12,07,58,4.40
2008,04,12,07,59,4.40
2008,04,12,08,00,4.40
2008,04,12,08,01,4.50
2008,04,12,08,02,4.50
2008,04,12,08,04,4.50
2008,04,12,08,05,4.50
2008,04,12,08,06,4.60
2008,04,12,08,07,4.60
2008,04,12,08,08,4.60
2008,04,12,08,09,4.60
2008,04,12,08,10,4.60
2008,04,12,08,11,4.60
2008,04,12,08,12,4.60
2008,04,12,08,13,4.60
2008,04,12,08,14,4.60
2008,04,12,08,15,4.70
2008,04,12,08,16,4.70
2008,04,12,08,17,4.70
2008,04,12,08,18,4.70
2008,04,12,08,19,4.70
2008,04,12,08,20,4.70
2008,04,12,08,21,4.70
2008,04,12,08,22,4.70
2008,04,12,08,23,4.80
2008,04,12,08,24,4.80
2008,04,12,08,25,4.80
2008,04,12,08,26,4.80
2008,04,12,08,27,4.80
2008,04,12,08,28,4.80
2008,04,12,08,29,4.80
2008,04,12,08,30,4.90
2008,04,12,08,31,4.90
2008,04,12,08,32,4.90
2008,04,12,08,33,4.90
2008,04,12,08,34,4.90
2008,04,12,08,35,4.90
2008,04,12,08,36,4.90
2008,04,12,08,37,4.90
2008,04,12,08,38,4.90
2008,04,12,08,39,4.90
2008,04,12,08,40,4.90
2008,04,12,08,41,5.00
2008,04,12,08,42,5.00
2008,04,12,08,43,5.00
2008,04,12,08,44,5.10
2008,04,12,08,45,5.10
2008,04,12,08,46,5.10
2008,04,12,08,47,5.10
2008,04,12,08,48,5.10
2008,04,12,08,50,5.20
2008,04,12,08,51,5.20
2008,04,12,08,52,5.20
2008,04,12,08,53,5.20
2008,04,12,08,54,5.30
2008,04,12,08,55,5.30
2008,04,12,08,56,5.30
2008,04,12,08,57,5.30
2008,04,12,08,58,5.30
2008,04,12,08,59,5.40
2008,04,12,09,00,5.40
2008,04,12,09,01,5.40
2008,04,12,09,02,5.40
2008,04,12,09,03,5.40
2008,04,12,09,04,5.50
2008,04,12,09,05,5.50
2008,04,12,09,06,5.50
2008,04,12,09,07,5.60
2008,04,12,09,08,5.60
2008,04,12,09,09,5.60
2008,04,12,09,11,5.60
2008,04,12,09,12,5.60
2008,04,12,09,13,5.70
2008,04,12,09,14,5.70
2008,04,12,09,15,5.70
2008,04,12,09,16,5.70
2008,04,12,09,17,5.70
2008,04,12,09,18,5.70
2008,04,12,09,19,5.80
2008,04,12,09,20,5.80
2008,04,12,09,21,5.80
2008,04,12,09,22,5.80
2008,04,12,09,23,5.80
2008,04,12,09,24,5.80
2008,04,12,09,25,5.80
2008,04,12,09,26,5.80
2008,04,12,09,27,5.80
2008,04,12,09,28,5.80
2008,04,12,09,29,5.80
2008,04,12,09,30,5.90
2008,04,12,09,31,5.90
2008,04,12,09,32,5.90
2008,04,12,09,33,5.90
2008,04,12,09,34,5.90
2008,04,12,09,35,5.90
2008,04,12,09,36,6.00
2008,04,12,09,37,6.00
2008,04,12,09,38,6.10
2008,04,12,09,39,6.10
2008,04,12,09,41,6.20
2008,04,12,09,42,6.20
2008,04,12,09,43,6.20
2008,04,12,09,44,6.20
2008,04,12,09,45,6.30
2008,04,12,09,46,6.30
2008,04,12,09,47,6.30
2008,04,12,09,48,6.40
2008,04,12,09,49,6.40
2008,04,12,09,50,6.50
2008,04,12,09,51,6.50
2008,04,12,09,52,6.60
2008,04,12,09,53,6.60
2008,04,12,09,54,6.60
2008,04,12,09,55,6.70
2008,04,12,09,56,6.70
2008,04,12,09,57,6.70
2008,04,12,09,58,6.80
2008,04,12,09,59,6.80
2008,04,12,10,00,6.90
2008,04,12,10,01,6.90
2008,04,12,10,02,7.00
2008,04,12,10,03,7.10
2008,04,12,10,04,7.10
2008,04,12,10,05,7.20
2008,04,12,10,06,7.20
2008,04,12,10,07,7.20
2008,04,12,10,08,7.20
2008,04,12,10,09,7.20
2008,04,12,10,10,7.30
2008,04,12,10,11,7.30
2008,04,12,10,12,7.40
2008,04,12,10,13,7.40
2008,04,12,10,14,7.50
2008,04,12,10,15,7.60
2008,04,12,10,16,7.60
2008,04,12,10,17,7.70
2008,04,12,10,18,7.80
2008,04,12,10,19,7.80
2008,04,12,10,20,7.90
2008,04,12,10,21,7.90
2008,04,12,10,22,8.00
2008,04,12,10,23,8.10
2008,04,12,10,24,8.20
2008,04,12,10,25,8.20
2008,04,12,10,26,8.30
2008,04,12,10,27,8.30
2008,04,12,10,28,8.40
2008,04,12,10,29,8.40
2008,04,12,10,30,8.60
2008,04,12,10,31,8.60
2008,04,12,10,32,8.70
2008,04,12,10,33,8.70
2008,04,12,10,34,8.80
2008,04,12,10,35,8.80
2008,04,12,10,36,8.90
2008,04,12,10,37,8.90
2008,04,12,10,38,9.00
2008,04,12,10,39,9.10
2008,04,12,10,40,9.10
2008,04,12,10,41,9.20
2008,04,12,10,42,9.20
2008,04,12,10,43,9.30
2008,04,12,10,44,9.40
2008,04,12,10,45,9.40
2008,04,12,10,46,9.50
2008,04,12,10,47,9.60
2008,04,12,10,48,9.60
2008,04,12,10,49,9.70
2008,04,12,10,50,9.80
2008,04,12,10,51,9.80
2008,04,12,10,52,9.90
2008,04,12,10,53,10.00
2008,04,12,10,54,10.10
2008,04,12,10,55,10.10
2008,04,12,10,56,10.20
2008,04,12,10,57,10.30
2008,04,12,10,58,10.30
2008,04,12,10,59,10.40
2008,04,12,11,00,10.40
2008,04,12,11,01,10.50
2008,04,12,11,02,10.60
2008,04,12,11,03,10.70
2008,04,12,11,04,10.80
2008,04,12,11,05,10.80
2008,04,12,11,06,10.90
2008,04,12,11,07,11.00
2008,04,12,11,08,11.10
2008,04,12,11,09,11.10
2008,04,12,11,10,11.20
2008,04,12,11,12,11.30
2008,04,12,11,13,11.40
2008,04,12,11,14,11.50
2008,04,12,11,15,11.60
2008,04,12,11,16,11.60
2008,04,12,11,17,11.70
2008,04,12,11,18,11.70
2008,04,12,11,19,11.80
2008,04,12,11,20,11.80
2008,04,12,11,21,11.80
2008,04,12,11,22,11.80
2008,04,12,11,23,11.80
2008,04,12,11,24,11.90
2008,04,12,11,25,11.90
2008,04,12,11,26,11.90
2008,04,12,11,27,11.90
2008,04,12,11,28,11.90
2008,04,12,11,29,11.90
2008,04,12,11,30,11.90
2008,04,12,11,31,11.80
2008,04,12,11,32,11.70
2008,04,12,11,33,11.70
2008,04,12,11,34,11.60
2008,04,12,11,35,11.60
2008,04,12,11,37,11.50
2008,04,12,11,38,11.50
2008,04,12,11,39,11.50
2008,04,12,11,40,11.60
2008,04,12,11,41,11.60
2008,04,12,11,42,11.60
2008,04,12,11,43,11.60
2008,04,12,11,44,11.60
2008,04,12,11,45,11.60
2008,04,12,11,46,11.70
2008,04,12,11,47,11.70
2008,04,12,11,48,11.70
2008,04,12,11,49,11.70
2008,04,12,11,50,11.70
2008,04,12,11,51,11.70
2008,04,12,11,52,11.70
2008,04,12,11,53,11.70
2008,04,12,11,54,11.70
2008,04,12,11,55,11.70
2008,04,12,11,56,11.80
2008,04,12,11,57,11.80
2008,04,12,11,58,11.80
2008,04,12,11,59,11.90
2008,04,12,12,00,12.00
2008,04,12,12,01,12.10
2008,04,12,12,02,12.10
2008,04,12,12,03,12.20
2008,04,12,12,04,12.20
2008,04,12,12,05,12.30
2008,04,12,12,06,12.30
2008,04,12,12,07,12.30
2008,04,12,12,08,12.30
2008,04,12,12,09,12.40
2008,04,12,12,10,12.40
2008,04,12,12,11,12.40
2008,04,12,12,12,12.40
2008,04,12,12,13,12.50
2008,04,12,12,14,12.60
2008,04,12,12,15,12.60
2008,04,12,12,16,12.70
2008,04,12,12,17,12.70
2008,04,12,12,18,12.80
2008,04,12,12,19,12.80
2008,04,12,12,20,12.80
2008,04,12,12,21,12.90
2008,04,12,12,22,13.00
2008,04,12,12,23,13.10
2008,04,12,12,24,13.20
2008,04,12,12,25,13.20
2008,04,12,12,26,13.30
2008,04,12,12,27,13.30
2008,04,12,12,28,13.40
2008,04,12,12,29,13.40
2008,04,12,12,30,13.50
2008,04,12,12,31,13.60
2008,04,12,12,32,13.70
2008,04,12,12,33,13.70
2008,04,12,12,34,13.70
2008,04,12,12,35,13.80
2008,04,12,12,36,13.80
2008,04,12,12,37,13.90
2008,04,12,12,38,13.90
2008,04,12,12,39,13.90
2008,04,12,12,40,14.00
2008,04,12,12,41,14.00
2008,04,12,12,42,14.10
2008,04,12,12,43,14.20
2008,04,12,12,44,14.20
2008,04,12,12,45,14.20
2008,04,12,12,46,14.20
2008,04,12,12,47,14.20
2008,04,12,12,48,14.30
2008,04,12,12,49,14.30
2008,04,12,12,50,14.30
2008,04,12,12,51,14.30
2008,04,12,12,52,14.30
2008,04,12,12,53,14.30
2008,04,12,12,54,14.30
2008,04,12,12,55,14.30
2008,04,12,12,56,14.30
2008,04,12,12,57,14.30
2008,04,12,12,58,14.30
2008,04,12,12,59,14.30
2008,04,12,13,00,14.30
2008,04,12,13,01,14.30
2008,04,12,13,02,14.30
2008,04,12,13,03,14.30
2008,04,12,13,04,14.30
2008,04,12,13,05,14.40
2008,04,12,13,06,14.40
2008,04,12,13,07,14.40
2008,04,12,13,08,14.60
2008,04,12,13,09,14.60
2008,04,12,13,10,14.70
2008,04,12,13,11,14.70
2008,04,12,13,13,14.80
2008,04,12,13,14,14.80
2008,04,12,13,15,14.90
2008,04,12,13,16,14.90
2008,04,12,13,17,14.90
2008,04,12,13,18,14.90
2008,04,12,13,19,14.90
2008,04,12,13,20,14.90
2008,04,12,13,21,14.90
2008,04,12,13,22,15.00
2008,04,12,13,23,15.00
2008,04,12,13,24,15.00
2008,04,12,13,25,15.00
2008,04,12,13,26,15.00
2008,04,12,13,27,15.10
2008,04,12,13,28,15.20
2008,04,12,13,29,15.20
2008,04,12,13,30,15.30
2008,04,12,13,31,15.30
2008,04,12,13,33,15.40
2008,04,12,13,34,15.60
2008,04,12,13,35,15.60
2008,04,12,13,36,15.70
2008,04,12,13,37,15.80
2008,04,12,13,38,15.80
2008,04,12,13,39,15.90
2008,04,12,13,40,15.90
2008,04,12,13,41,16.00
2008,04,12,13,42,16.10
2008,04,12,13,43,16.10
2008,04,12,13,44,16.20
2008,04,12,13,45,16.30
2008,04,12,13,46,16.30
2008,04,12,13,47,16.30
2008,04,12,13,48,16.30
2008,04,12,13,49,16.40
2008,04,12,13,50,16.40
2008,04,12,13,51,16.40
2008,04,12,13,52,16.60
2008,04,12,13,53,16.60
2008,04,12,13,54,16.70
2008,04,12,13,55,16.80
2008,04,12,13,56,16.90
2008,04,12,13,58,17.10
2008,04,12,13,59,17.10
2008,04,12,14,00,17.20
2008,04,12,14,01,17.30
2008,04,12,14,02,17.30
2008,04,12,14,03,17.30
2008,04,12,14,04,17.30
2008,04,12,14,05,17.30
2008,04,12,14,06,17.40
2008,04,12,14,07,17.40
2008,04,12,14,08,17.50
2008,04,12,14,09,17.60
2008,04,12,14,10,17.60
2008,04,12,14,11,17.70
2008,04,12,14,12,17.80
2008,04,12,14,13,17.80
2008,04,12,14,14,17.90
2008,04,12,14,15,18.00
2008,04,12,14,16,18.10
2008,04,12,14,17,18.20
2008,04,12,14,18,18.30
2008,04,12,14,19,18.30
2008,04,12,14,20,18.40
2008,04,12,14,21,18.60
2008,04,12,14,22,18.60
2008,04,12,14,23,18.70
2008,04,12,14,24,18.70
2008,04,12,14,25,18.80
2008,04,12,14,26,18.80
2008,04,12,14,27,18.90
2008,04,12,14,28,18.90
2008,04,12,14,29,19.00
2008,04,12,14,30,19.10
2008,04,12,14,31,19.10
2008,04,12,14,32,19.20
2008,04,12,14,33,19.20
2008,04,12,14,34,19.30
2008,04,12,14,35,19.30
2008,04,12,14,36,19.40
2008,04,12,14,37,19.40
2008,04,12,14,38,19.50
2008,04,12,14,39,19.50
2008,04,12,14,40,19.60
2008,04,12,14,41,19.60
2008,04,12,14,42,19.60
2008,04,12,14,43,19.60
2008,04,12,14,44,19.70
2008,04,12,14,45,19.70
2008,04,12,14,46,19.70
2008,04,12,14,47,19.70
2008,04,12,14,48,19.70
2008,04,12,14,49,19.70
2008,04,12,14,50,19.70
2008,04,12,14,51,19.80
2008,04,12,14,52,19.80
2008,04,12,14,53,19.90
2008,04,12,14,54,20.00
2008,04,12,14,55,20.10
2008,04,12,14,56,20.20
2008,04,12,14,57,20.20
2008,04,12,14,58,20.30
2008,04,12,14,59,20.40
2008,04,12,15,00,20.50
2008,04,12,15,01,20.60
2008,04,12,15,02,20.70
2008,04,12,15,03,20.70
2008,04,12,15,04,20.80
2008,04,12,15,05,20.80
2008,04,12,15,06,20.90
2008,04,12,15,07,21.00
2008,04,12,15,08,21.20
2008,04,12,15,09,21.30
2008,04,12,15,10,21.30
2008,04,12,15,11,21.40
2008,04,12,15,12,21.50
2008,04,12,15,13,21.50
2008,04,12,15,14,21.60
2008,04,12,15,15,21.60
2008,04,12,15,16,21.50
2008,04,12,15,17,21.60
2008,04,12,15,18,21.60
2008,04,12,15,19,21.70
2008,04,12,15,20,21.70
2008,04,12,15,21,21.80
2008,04,12,15,22,21.80
2008,04,12,15,23,21.90
2008,04,12,15,24,22.00
2008,04,12,15,25,22.10
2008,04,12,15,26,22.10
2008,04,12,15,27,22.20
2008,04,12,15,28,22.20
2008,04,12,15,29,22.30
2008,04,12,15,30,22.30
2008,04,12,15,31,22.40
2008,04,12,15,32,22.40
2008,04,12,15,33,22.50
2008,04,12,15,34,22.50
2008,04,12,15,35,22.60
2008,04,12,15,36,22.60
2008,04,12,15,37,22.60
2008,04,12,15,38,22.60
2008,04,12,15,39,22.60
2008,04,12,15,40,22.60
2008,04,12,15,41,22.60
2008,04,12,15,42,22.60
2008,04,12,15,43,22.40
2008,04,12,15,44,22.40
2008,04,12,15,45,22.30
2008,04,12,15,46,22.20
2008,04,12,15,47,22.10
2008,04,12,15,48,21.90
2008,04,12,15,49,21.80
2008,04,12,15,50,21.80
2008,04,12,15,51,21.80
2008,04,12,15,52,21.90
2008,04,12,15,53,22.00
2008,04,12,15,54,22.10
2008,04,12,15,55,22.10
2008,04,12,15,56,22.20
2008,04,12,15,57,22.30
2008,04,12,15,58,22.30
2008,04,12,15,59,22.30
2008,04,12,16,00,22.30
2008,04,12,16,01,22.30
2008,04,12,16,02,22.30
2008,04,12,16,03,22.30
2008,04,12,16,04,22.40
2008,04,12,16,05,22.40
2008,04,12,16,06,22.50
2008,04,12,16,07,22.60
2008,04,12,16,08,22.70
2008,04,12,16,09,22.80
2008,04,12,16,10,22.90
2008,04,12,16,11,23.00
2008,04,12,16,12,23.10
2008,04,12,16,13,23.20
2008,04,12,16,14,23.20
2008,04,12,16,15,23.30
2008,04,12,16,16,23.40
2008,04,12,16,17,23.40
2008,04,12,16,18,23.40
2008,04,12,16,19,23.40
2008,04,12,16,20,23.50
2008,04,12,16,21,23.60
2008,04,12,16,22,23.60
2008,04,12,16,23,23.70
2008,04,12,16,24,23.80
2008,04,12,16,25,23.80
2008,04,12,16,26,23.90
2008,04,12,16,27,23.90
2008,04,12,16,28,24.00
2008,04,12,16,29,24.10
2008,04,12,16,30,24.10
2008,04,12,16,31,24.10
2008,04,12,16,32,23.90
2008,04,12,16,33,23.80
2008,04,12,16,34,23.70
2008,04,12,16,35,23.70
2008,04,12,16,36,23.70
2008,04,12,16,37,23.70
2008,04,12,16,39,23.70
2008,04,12,16,40,23.70
2008,04,12,16,41,23.70
2008,04,12,16,42,23.70
2008,04,12,16,43,23.70
2008,04,12,16,44,23.70
2008,04,12,16,45,23.70
2008,04,12,16,46,23.70
2008,04,12,16,47,23.70
2008,04,12,16,48,23.70
2008,04,12,16,49,23.70
2008,04,12,16,50,23.70
2008,04,12,16,51,23.60
2008,04,12,16,52,23.60
2008,04,12,16,53,23.60
2008,04,12,16,54,23.60
2008,04,12,16,55,23.70
2008,04,12,16,56,23.70
2008,04,12,16,57,23.70
2008,04,12,16,58,23.70
2008,04,12,16,59,23.80
2008,04,12,17,00,23.80
2008,04,12,17,01,23.80
2008,04,12,17,02,23.90
2008,04,12,17,03,23.90
2008,04,12,17,04,24.00
2008,04,12,17,05,24.10
2008,04,12,17,06,24.20
2008,04,12,17,07,24.20
2008,04,12,17,08,24.20
2008,04,12,17,09,24.30
2008,04,12,17,10,24.30
2008,04,12,17,11,24.30
2008,04,12,17,12,24.40
2008,04,12,17,13,24.30
2008,04,12,17,15,24.20
2008,04,12,17,16,24.20
2008,04,12,17,17,24.10
2008,04,12,17,18,24.10
2008,04,12,17,19,24.10
2008,04,12,17,20,24.10
2008,04,12,17,21,24.00
2008,04,12,17,22,24.00
2008,04,12,17,23,24.00
2008,04,12,17,24,24.00
2008,04,12,17,25,23.90
2008,04,12,17,26,23.80
2008,04,12,17,27,23.80
2008,04,12,17,28,23.70
2008,04,12,17,29,23.70
2008,04,12,17,30,23.60
2008,04,12,17,31,23.50
2008,04,12,17,32,23.40
2008,04,12,17,34,23.20
2008,04,12,17,35,23.10
2008,04,12,17,36,23.10
2008,04,12,17,37,23.10
2008,04,12,17,38,23.10
2008,04,12,17,39,23.00
2008,04,12,17,40,22.90
2008,04,12,17,41,22.90
2008,04,12,17,42,22.90
2008,04,12,17,43,22.90
2008,04,12,17,44,22.90
2008,04,12,17,45,22.90
2008,04,12,17,46,22.80
2008,04,12,17,47,22.80
2008,04,12,17,48,22.80
2008,04,12,17,49,22.80
2008,04,12,17,50,22.70
2008,04,12,17,51,22.60
2008,04,12,17,52,22.60
2008,04,12,17,53,22.50
2008,04,12,17,54,22.50
2008,04,12,17,55,22.50
2008,04,12,17,56,22.50
2008,04,12,17,57,22.50
2008,04,12,17,58,22.50
2008,04,12,17,59,22.50
2008,04,12,18,00,22.50
2008,04,12,18,01,22.50
2008,04,12,18,02,22.50
2008,04,12,18,03,22.50
2008,04,12,18,04,22.50
2008,04,12,18,05,22.40
2008,04,12,18,06,22.40
2008,04,12,18,07,22.40
2008,04,12,18,08,22.40
2008,04,12,18,09,22.40
2008,04,12,18,10,22.40
2008,04,12,18,11,22.30
2008,04,12,18,12,22.30
2008,04,12,18,13,22.20
2008,04,12,18,14,22.20